This is the latest recevied weather packets stored in our database for station/object p43g-13. If no packets are shown the sender has not sent any weather packets the latest 10 day(s).
| Time | Temp. | Humidity | Pressure | Rain* | Wind** | Luminosity | Snow |
|---|---|---|---|---|---|---|---|
| 1787958046 | 28.89° C | 83% | 1009.2 hPa | 0 mm | - | 0 W/m² | - |
| 1787957746 | 28.89° C | 84% | 1009.3 hPa | 0 mm | - | 2 W/m² | - |
| 1787957446 | 28.89° C | 84% | 1009.1 hPa | 0 mm | - | 5 W/m² | - |
| 1787957146 | 28.89° C | 84% | 1009.1 hPa | 0 mm | - | 8 W/m² | - |
| 1787956846 | 28.89° C | 84% | 1009.2 hPa | 0 mm | - | 13 W/m² | - |
| 1787956546 | 29.44° C | 84% | 1009.1 hPa | 0 mm | - | 20 W/m² | - |
| 1787956245 | 29.44° C | 83% | 1009 hPa | 0 mm | - | 26 W/m² | - |
| 1787955945 | 29.44° C | 82% | 1009 hPa | 0 mm | - | 32 W/m² | - |
| 1787955646 | 29.44° C | 81% | 1008.8 hPa | 0 mm | - | 39 W/m² | - |
| 1787955346 | 29.44° C | 80% | 1009.1 hPa | 0 mm | - | 42 W/m² | - |
| 1787955046 | 29.44° C | 80% | 1009.1 hPa | 0 mm | - | 58 W/m² | - |
| 1787954746 | 29.44° C | 81% | 1009.1 hPa | 0 mm | - | 70 W/m² | - |
| 1787954446 | 29.44° C | 81% | 1009.2 hPa | 0 mm | - | 87 W/m² | - |
| 1787954146 | 29.44° C | 80% | 1009.2 hPa | 0 mm | - | 91 W/m² | - |
| 1787953845 | 29.44° C | 80% | 1009.2 hPa | 0 mm | - | 64 W/m² | - |
| 1787953546 | 30° C | 80% | 1009.2 hPa | 0 mm | - | 97 W/m² | - |
| 1787953245 | 30° C | 80% | 1009.3 hPa | 0 mm | - | 102 W/m² | - |
| 1787952946 | 30° C | 80% | 1009.3 hPa | 0 mm | - | 97 W/m² | - |
| 1787952646 | 30° C | 79% | 1009.2 hPa | 0 mm | - | 121 W/m² | - |
| 1787952346 | 30° C | 78% | 1009.3 hPa | 0 mm | - | 155 W/m² | - |
| 1787952045 | 30° C | 78% | 1009.3 hPa | 0 mm | - | 163 W/m² | - |
| 1787951746 | 30.56° C | 78% | 1009.3 hPa | 0 mm | - | 131 W/m² | - |
| 1787951445 | 30° C | 77% | 1009.2 hPa | 0 mm | - | 199 W/m² | - |
| 1787951146 | 30° C | 78% | 1009 hPa | 0 mm | - | 226 W/m² | - |
| 1787950846 | 30.56° C | 77% | 1009.4 hPa | 0 mm | - | 247 W/m² | - |
* Rain latest hour (hover to see other rain measurements)
** Current wind speed in m/s (hover to see current wind gust speed)